History for KNYNEWYO639

Roof of a 1 story trailer, New York, NY — Current Conditions
Daily Summary for July 19, 2018
  Current: High: Low: Average:
Temperature: 68.4°F 74.4°F 68.5°F 71.4°F
Dew Point: 58.0°F 59.0°F 54.0°F 56.0°F
Humidity: 70% 70% 53% 61%
Wind Speed: 7.0mph 16.8mph - 7.7mph
Wind Gust: 10.0mph 16.0mph - -
Wind: WSW - - WSW
Pressure: 30.12in 30.12in 30.06in -
Precipitation: 0.00in      
Statistics for the rest of the month
    High: Low: Average:
Temperature:   95.8°F 64.1°F 80.0°F
Dew Point:   78.0°F 43.0°F 65.2°F
Humidity:   95.0% 31.0% 64.5%
Wind Speed:   33.1mph from the SW - 6.2mph
Wind Gust:   33.0mph from the SW - -
Wind:   - - SE
Pressure:   30.46in 29.80in -
Precipitation:   0.00in    
KNYNEWYO639 Weather Graph
Tabular Data for July 19, 2018
Time Temp. Dew Point Pressure Wind Gust Humidity Rainfall
00:04 74.3°F 56.0°F 30.06in 10.0mph 54% 0.00in
00:09 74.2°F 56.0°F 30.06in 12.0mph 54% 0.00in
00:14 74.0°F 56.0°F 30.06in 16.0mph 54% 0.00in
00:19 73.8°F 56.0°F 30.06in 7.0mph 55% 0.00in
00:24 73.4°F 57.0°F 30.06in 10.0mph 57% 0.00in
00:29 73.2°F 56.0°F 30.06in 11.0mph 56% 0.00in
00:34 73.2°F 56.0°F 30.06in 10.0mph 55% 0.00in
00:39 73.1°F 56.0°F 30.07in 9.0mph 55% 0.00in
00:44 73.1°F 56.0°F 30.06in 9.0mph 55% 0.00in
00:49 72.9°F 55.0°F 30.07in 12.0mph 54% 0.00in
00:54 72.8°F 54.0°F 30.07in 12.0mph 53% 0.00in
00:59 72.8°F 55.0°F 30.07in 11.0mph 54% 0.00in
01:04 72.7°F 55.0°F 30.07in 11.0mph 54% 0.00in
01:09 72.6°F 55.0°F 30.07in 9.0mph 54% 0.00in
01:14 72.4°F 54.0°F 30.07in 10.0mph 53% 0.00in
01:19 72.3°F 54.0°F 30.08in 9.0mph 54% 0.00in
01:24 72.3°F 54.0°F 30.08in 12.0mph 54% 0.00in
01:29 72.4°F 54.0°F 30.08in 12.0mph 54% 0.00in
01:34 72.4°F 54.0°F 30.08in 15.0mph 54% 0.00in
01:39 72.4°F 54.0°F 30.08in 13.0mph 53% 0.00in
01:44 72.3°F 54.0°F 30.08in 13.0mph 54% 0.00in
01:49 72.2°F 54.0°F 30.08in 11.0mph 54% 0.00in
01:54 72.2°F 54.0°F 30.08in 9.0mph 54% 0.00in
01:59 72.0°F 54.0°F 30.08in 11.0mph 54% 0.00in
02:04 71.8°F 54.0°F 30.08in 10.0mph 54% 0.00in
02:09 71.7°F 55.0°F 30.08in 9.0mph 56% 0.00in
02:14 71.6°F 55.0°F 30.09in 9.0mph 57% 0.00in
02:19 71.4°F 55.0°F 30.09in 9.0mph 57% 0.00in
02:24 71.3°F 55.0°F 30.09in 7.0mph 57% 0.00in
02:29 71.1°F 54.0°F 30.09in 9.0mph 57% 0.00in
02:34 70.9°F 54.0°F 30.09in 10.0mph 57% 0.00in
02:39 70.8°F 55.0°F 30.09in 11.0mph 58% 0.00in
02:44 70.8°F 56.0°F 30.09in 10.0mph 60% 0.00in
02:49 70.7°F 56.0°F 30.09in 8.0mph 61% 0.00in
02:54 70.4°F 57.0°F 30.09in 9.0mph 63% 0.00in
02:59 70.2°F 57.0°F 30.09in 9.0mph 64% 0.00in
03:04 70.1°F 57.0°F 30.10in 7.0mph 65% 0.00in
03:09 69.9°F 57.0°F 30.10in 7.0mph 65% 0.00in
03:14 69.8°F 56.0°F 30.10in 7.0mph 62% 0.00in
03:19 69.8°F 56.0°F 30.10in 8.0mph 61% 0.00in
03:24 69.9°F 56.0°F 30.10in 8.0mph 61% 0.00in
03:29 69.9°F 56.0°F 30.10in 7.0mph 62% 0.00in
03:34 69.9°F 57.0°F 30.10in 6.0mph 64% 0.00in
03:39 69.8°F 57.0°F 30.10in 7.0mph 66% 0.00in
03:44 69.6°F 57.0°F 30.10in 8.0mph 66% 0.00in
03:49 69.5°F 57.0°F 30.10in 8.0mph 66% 0.00in
03:54 69.4°F 57.0°F 30.10in 9.0mph 66% 0.00in
03:59 69.5°F 58.0°F 30.11in 9.0mph 67% 0.00in
04:04 69.5°F 59.0°F 30.10in 10.0mph 68% 0.00in
04:09 69.4°F 57.0°F 30.10in 9.0mph 67% 0.00in
04:14 69.3°F 58.0°F 30.11in 10.0mph 68% 0.00in
04:19 69.1°F 58.0°F 30.11in 9.0mph 69% 0.00in
04:24 69.0°F 59.0°F 30.11in 10.0mph 70% 0.00in
04:29 69.0°F 59.0°F 30.11in 9.0mph 70% 0.00in
04:34 68.8°F 58.0°F 30.11in 8.0mph 70% 0.00in
04:39 68.6°F 58.0°F 30.11in 9.0mph 70% 0.00in
04:44 68.5°F 58.0°F 30.11in 9.0mph 70% 0.00in
04:49 68.5°F 57.0°F 30.11in 9.0mph 69% 0.00in
04:54 68.6°F 57.0°F 30.12in 9.0mph 69% 0.00in
04:59 68.6°F 57.0°F 30.12in 9.0mph 69% 0.00in
05:04 68.5°F 57.0°F 30.11in 8.0mph 68% 0.00in
05:09 68.5°F 57.0°F 30.11in 8.0mph 69% 0.00in
05:14 68.6°F 57.0°F 30.12in 8.0mph 69% 0.00in
05:19 68.5°F 58.0°F 30.12in 9.0mph 70% 0.00in
Comma Delimited File
Powered by Weather Underground, Inc.